WZZ1213 LTBU-LROP

Flight info

Callsign WZZ1213
Flight time 0h 51m
Altitude 30000
Route AFGAR DCT VADEN DCT BGS L622 KOMAN/N0322F100 L622 OBUGA
Aircraft A21N/M-SDE2E3FGHIRWXY/LB1

Departure

Time 2026-05-04 11:10
Airport Tekirdağ Çorlu Airport (LTBU)

Arrival

Time 2026-05-04 12:01
Airport Bucharest Henri Coandă International Airport (LROP)
Time Latitude Longitude Altitude Speed Heading
2026-05-04 10:58 41.12785 27.90705 483 ft 0 kts 229°
2026-05-04 11:05 41.12777 27.90746 477 ft 0 kts 357°
2026-05-04 11:06 41.12778 27.90745 485 ft 1 kts 346°
2026-05-04 11:06 41.12793 27.90739 476 ft 3 kts 339°
2026-05-04 11:08 41.13609 27.91557 508 ft 127 kts 48°
2026-05-04 11:10 41.19756 28.00996 3844 ft 230 kts 33°
2026-05-04 11:12 41.29375 27.95624 8736 ft 245 kts 328°
2026-05-04 11:12 41.30768 27.94291 9412 ft 250 kts 328°
2026-05-04 11:12 41.32194 27.92932 10079 ft 255 kts 329°
2026-05-04 11:12 41.33698 27.91573 10458 ft 269 kts 335°
2026-05-04 11:13 41.35429 27.90444 10771 ft 285 kts 339°
2026-05-04 11:13 41.37279 27.89382 11087 ft 302 kts 341°
2026-05-04 11:13 41.39287 27.88319 11385 ft 318 kts 342°
2026-05-04 11:13 41.41388 27.87255 11849 ft 327 kts 342°
2026-05-04 11:14 41.46421 27.84740 13475 ft 334 kts 342°
2026-05-04 11:16 41.63801 27.75911 17878 ft 364 kts 342°
2026-05-04 11:16 41.66179 27.74695 18383 ft 367 kts 342°
2026-05-04 11:16 41.68580 27.73467 18834 ft 371 kts 342°
2026-05-04 11:17 41.71011 27.72224 19253 ft 376 kts 343°
2026-05-04 11:17 41.73476 27.70962 19590 ft 382 kts 343°
2026-05-04 11:19 41.91279 27.61813 22525 ft 403 kts 343°
2026-05-04 11:19 41.93920 27.60452 22887 ft 408 kts 343°
2026-05-04 11:19 41.96565 27.59088 23142 ft 414 kts 343°
2026-05-04 11:19 41.99266 27.57694 23533 ft 417 kts 343°
2026-05-04 11:20 42.01989 27.56287 23889 ft 420 kts 343°
2026-05-04 11:20 42.04730 27.54867 24220 ft 423 kts 343°
2026-05-04 11:20 42.07484 27.53439 24556 ft 425 kts 343°
2026-05-04 11:20 42.10251 27.52004 24888 ft 427 kts 343°
2026-05-04 11:22 42.30059 27.41694 26837 ft 446 kts 343°
2026-05-04 11:22 42.32967 27.40176 27065 ft 449 kts 343°
2026-05-04 11:23 42.35888 27.38648 27343 ft 450 kts 343°
2026-05-04 11:23 42.38814 27.37115 27625 ft 452 kts 343°
2026-05-04 11:24 42.56320 27.27911 29673 ft 451 kts 343°
2026-05-04 11:25 42.59246 27.26369 29963 ft 452 kts 343°
2026-05-04 11:25 42.65109 27.23274 30043 ft 451 kts 343°
2026-05-04 11:27 42.91435 27.09293 30046 ft 454 kts 342°
2026-05-04 11:28 42.97318 27.06152 30040 ft 454 kts 342°
2026-05-04 11:28 43.03197 27.03001 30045 ft 454 kts 341°
2026-05-04 11:29 43.09023 26.99760 30040 ft 455 kts 340°
2026-05-04 11:29 43.14889 26.96515 29780 ft 451 kts 340°
2026-05-04 11:31 43.32596 26.82274 25636 ft 429 kts 328°
2026-05-04 11:33 43.49306 26.66916 21247 ft 389 kts 329°
2026-05-04 11:33 43.51540 26.64864 20674 ft 384 kts 329°
2026-05-04 11:33 43.53759 26.62824 20107 ft 381 kts 329°
2026-05-04 11:34 43.55952 26.60805 19536 ft 377 kts 329°
2026-05-04 11:34 43.58110 26.58816 18986 ft 366 kts 329°
2026-05-04 11:34 43.60185 26.56900 18488 ft 351 kts 329°
2026-05-04 11:34 43.62167 26.55070 18011 ft 336 kts 329°
2026-05-04 11:35 43.64089 26.53293 17531 ft 330 kts 329°
2026-05-04 11:35 43.65995 26.51533 17058 ft 332 kts 329°
2026-05-04 11:35 43.67958 26.49725 16601 ft 341 kts 329°
2026-05-04 11:35 43.69920 26.47910 16136 ft 337 kts 329°
2026-05-04 11:36 43.71851 26.46118 15663 ft 332 kts 330°
2026-05-04 11:36 43.73757 26.44346 15216 ft 328 kts 330°
2026-05-04 11:36 43.75612 26.42621 14777 ft 324 kts 330°
2026-05-04 11:36 43.77485 26.40879 14329 ft 321 kts 330°
2026-05-04 11:37 43.79324 26.39169 13908 ft 317 kts 331°
2026-05-04 11:37 43.81147 26.37475 13429 ft 314 kts 331°
2026-05-04 11:37 43.82952 26.35798 12958 ft 311 kts 331°
2026-05-04 11:37 43.84739 26.34134 12483 ft 307 kts 331°
2026-05-04 11:38 43.86504 26.32490 12030 ft 304 kts 331°
2026-05-04 11:38 43.88254 26.30858 11562 ft 301 kts 331°
2026-05-04 11:38 43.89988 26.29241 11103 ft 298 kts 331°
2026-05-04 11:38 43.91678 26.27661 10672 ft 295 kts 331°
2026-05-04 11:39 43.93372 26.26077 10256 ft 292 kts 332°
2026-05-04 11:39 43.95025 26.24527 10071 ft 279 kts 332°
2026-05-04 11:40 44.04388 26.15655 9415 ft 271 kts 331°
2026-05-04 11:41 44.05934 26.14154 9331 ft 271 kts 331°
2026-05-04 11:41 44.07479 26.12651 9249 ft 271 kts 330°
2026-05-04 11:41 44.09001 26.11100 9175 ft 273 kts 326°
2026-05-04 11:41 44.09800 26.10086 9129 ft 276 kts 320°
2026-05-04 11:42 44.10978 26.07945 9052 ft 283 kts 306°
2026-05-04 11:42 44.11792 26.05415 8937 ft 289 kts 295°
2026-05-04 11:42 44.12427 26.02746 8856 ft 291 kts 293°
2026-05-04 11:42 44.13029 26.00054 8782 ft 291 kts 293°
2026-05-04 11:43 44.13631 25.97368 8708 ft 290 kts 293°
2026-05-04 11:43 44.14236 25.94688 8624 ft 290 kts 293°
2026-05-04 11:43 44.14859 25.91957 8565 ft 309 kts 293°
2026-05-04 11:43 44.15519 25.89069 8425 ft 314 kts 293°
2026-05-04 11:44 44.16171 25.86180 8314 ft 311 kts 292°
2026-05-04 11:44 44.16811 25.83345 8212 ft 310 kts 292°
2026-05-04 11:44 44.17459 25.80490 8130 ft 309 kts 293°
2026-05-04 11:44 44.18108 25.77635 8044 ft 309 kts 293°
2026-05-04 11:45 44.18756 25.74786 7977 ft 308 kts 293°
2026-05-04 11:45 44.19402 25.71938 7875 ft 308 kts 292°
2026-05-04 11:45 44.20046 25.69096 7796 ft 307 kts 292°
2026-05-04 11:45 44.20689 25.66260 7734 ft 306 kts 292°
2026-05-04 11:46 44.21330 25.63428 7651 ft 306 kts 292°
2026-05-04 11:46 44.21965 25.60607 7567 ft 300 kts 292°
2026-05-04 11:46 44.22580 25.57905 7496 ft 284 kts 295°
2026-05-04 11:46 44.23381 25.55470 7435 ft 268 kts 308°
2026-05-04 11:47 44.24515 25.53533 7394 ft 257 kts 324°
2026-05-04 11:47 44.25956 25.52130 7370 ft 250 kts 339°
2026-05-04 11:47 44.27573 25.51344 7348 ft 245 kts 353°
2026-05-04 11:47 44.29256 25.50989 7326 ft 244 kts 357°
2026-05-04 11:48 44.30948 25.50735 7297 ft 244 kts 357°
2026-05-04 11:48 44.32634 25.50489 7089 ft 243 kts 357°
2026-05-04 11:48 44.33719 25.50328 7061 ft 243 kts 357°
2026-05-04 11:48 44.34589 25.50196 7063 ft 243 kts 357°
2026-05-04 11:49 44.35499 25.50057 7059 ft 243 kts 357°
2026-05-04 11:49 44.37185 25.49796 7057 ft 243 kts 356°
2026-05-04 11:49 44.38846 25.49537 7052 ft 244 kts 356°
2026-05-04 11:49 44.40543 25.49270 7053 ft 245 kts 356°
2026-05-04 11:50 44.42241 25.49003 7058 ft 246 kts 356°
2026-05-04 11:50 44.43945 25.48734 7060 ft 246 kts 356°
2026-05-04 11:50 44.45618 25.48467 7049 ft 236 kts 356°
2026-05-04 11:50 44.47220 25.48211 7050 ft 229 kts 356°
2026-05-04 11:51 44.48782 25.48071 7070 ft 223 kts
2026-05-04 11:51 44.50249 25.48578 7061 ft 217 kts 30°
2026-05-04 11:51 44.51232 25.50140 7058 ft 213 kts 59°
2026-05-04 11:51 44.51846 25.51895 7052 ft 193 kts 63°
2026-05-04 11:52 44.52280 25.53737 7067 ft 203 kts 71°
2026-05-04 11:52 44.52536 25.55690 6850 ft 204 kts 77°
2026-05-04 11:52 44.52689 25.57661 6387 ft 198 kts 79°
2026-05-04 11:52 44.52816 25.59502 6067 ft 184 kts 78°
2026-05-04 11:53 44.52950 25.61293 5540 ft 186 kts 79°
2026-05-04 11:53 44.53103 25.63063 5222 ft 177 kts 77°
2026-05-04 11:53 44.53240 25.64740 5047 ft 168 kts 79°
2026-05-04 11:53 44.53346 25.66270 4840 ft 152 kts 78°
2026-05-04 11:55 44.54185 25.77439 2566 ft 155 kts 84°
2026-05-04 11:55 44.54298 25.78930 2563 ft 156 kts 84°
2026-05-04 11:56 44.54418 25.80441 2566 ft 155 kts 83°
2026-05-04 11:56 44.54538 25.81952 2570 ft 156 kts 83°
2026-05-04 11:56 44.54655 25.83465 2568 ft 157 kts 83°
2026-05-04 11:56 44.54726 25.84389 2565 ft 157 kts 83°
2026-05-04 11:57 44.54829 25.85760 2577 ft 156 kts 83°
2026-05-04 11:57 44.54941 25.87268 2572 ft 155 kts 84°
2026-05-04 11:57 44.55053 25.88775 2555 ft 155 kts 84°
2026-05-04 11:57 44.55165 25.90277 2513 ft 155 kts 84°
2026-05-04 11:58 44.55278 25.91795 2391 ft 157 kts 83°
2026-05-04 11:58 44.55392 25.93318 2172 ft 156 kts 83°
2026-05-04 11:58 44.55505 25.94807 1996 ft 155 kts 84°
2026-05-04 11:58 44.55617 25.96303 1803 ft 154 kts 84°
2026-05-04 11:59 44.55729 25.97795 1609 ft 154 kts 84°
2026-05-04 11:59 44.55841 25.99286 1426 ft 153 kts 85°
2026-05-04 11:59 44.55952 26.00768 1240 ft 153 kts 84°
2026-05-04 11:59 44.56063 26.02248 1054 ft 151 kts 84°
2026-05-04 12:00 44.56172 26.03705 856 ft 150 kts 84°
2026-05-04 12:00 44.56281 26.05152 686 ft 148 kts 84°
2026-05-04 12:00 44.56388 26.06577 507 ft 146 kts 84°
2026-05-04 12:00 44.56493 26.07981 334 ft 143 kts 85°
2026-05-04 12:01 44.56586 26.09210 314 ft 102 kts 84°
2026-05-04 12:01 44.56636 26.09922 320 ft 44 kts 86°
2026-05-04 12:02 44.56835 26.10749 321 ft 10 kts 355°
2026-05-04 12:03 44.56936 26.10736 321 ft 17 kts 352°
2026-05-04 12:03 44.57032 26.10638 320 ft 19 kts 303°
2026-05-04 12:03 44.57063 26.10453 319 ft 21 kts 265°
2026-05-04 12:03 44.57048 26.10238 320 ft 22 kts 264°
2026-05-04 12:04 44.57032 26.10030 319 ft 14 kts 261°
2026-05-04 12:04 44.57004 26.09996 319 ft 4 kts 182°
2026-05-04 12:04 44.56970 26.09998 319 ft 5 kts 174°
2026-05-04 12:04 44.56945 26.10002 319 ft 0 kts 174°